Terminal Aerodrome Forecast
Issued by NWS Louisville, KY

Home | Current Version | Previous Version | Text Only | Print | Product List | Glossary On
Versions: 1 2 3 4 5 6 7 8 9 10 11 12 13 14 15 16 17 18 19 20 21 22 23
000
FTUS43 KLMK 182118 AAA
TAFSDF
TAF AMD
KSDF 182118Z 1821/1924 20018G32KT P6SM SHRA OVC022
      TEMPO 1822/1823 VRB25G45KT 1SM TSRA BR OVC011CB
     FM182300 30025G38KT P6SM VCSH OVC015
     FM190600 30015G24KT P6SM OVC026
     FM191100 29013KT P6SM BKN029=

USA.gov is the U.S. government's official web portal to all federal, state and local government web resources and services.